When you browse on this site, cookies collect data to enhance your experience and personalize the content and advertising you see.
Visit our Privacy Policy to learn more. By continuing to use the site, you agree to this use of cookies and data.
  • In Latvia
  • List of Countries
  • For 7 days
  • Water Temperature
  • Satellite Maps
  • Weather Map
  • Weather Widgets
  • user-avatar
    Login

    Hourly Weather Yelsk

    Today, 20 July, Saturday

    Time Temperature Precipitation Wind Pressure Humidity
    00:00 +15°C° 0 mm 2 mps 747 mmHg 87%
    01:00 +15°C° 0 mm 2 mps 747 mmHg 89%
    02:00 +15°C° 0 mm 2 mps 747 mmHg 87%
    03:00 +15°C° 0 mm 1 mps 747 mmHg 87%
    04:00 +15°C° 0 mm 1 mps 748 mmHg 87%
    05:00 +15°C° 0 mm 1 mps 748 mmHg 87%
    06:00 +18°C° 0 mm 1 mps 748 mmHg 81%
    07:00 +20°C° 0 mm 1 mps 748 mmHg 74%
    08:00 +21°C° 0 mm 2 mps 748 mmHg 67%
    09:00 +24°C° 0 mm 2 mps 748 mmHg 61%
    10:00 +25°C° 0 mm 2 mps 748 mmHg 55%
    11:00 +26°C° 0 mm 2 mps 748 mmHg 50%
    12:00 +26°C° 0 mm 2 mps 748 mmHg 49%
    13:00 +27°C° 0 mm 2 mps 748 mmHg 49%
    14:00 +27°C° 0 mm 2 mps 748 mmHg 53%
    15:00 +26°C° 0.3 mm 2 mps 748 mmHg 57%
    16:00 +26°C° 0.3 mm 2 mps 748 mmHg 61%
    17:00 +25°C° 0.3 mm 2 mps 748 mmHg 65%
    18:00 +24°C° 0.1 mm 1 mps 748 mmHg 71%
    19:00 +22°C° 0.1 mm 1 mps 748 mmHg 76%
    20:00 +21°C° 0.1 mm 1 mps 748 mmHg 81%
    21:00 +20°C° 0 mm 1 mps 748 mmHg 83%
    22:00 +19°C° 0 mm 1 mps 748 mmHg 86%
    23:00 +18°C° 0 mm 1 mps 748 mmHg 88%

    Tomorrow, 21 July, Sunday

    Time Temperature Precipitation Wind Pressure Humidity
    00:00 +18°C° 0 mm 1 mps 748 mmHg 88%
    01:00 +16°C° 0 mm 1 mps 749 mmHg 88%
    02:00 +15°C° 0 mm 0 mps 749 mmHg 88%
    03:00 +15°C° 0 mm 0 mps 749 mmHg 89%
    04:00 +15°C° 0 mm 0 mps 749 mmHg 89%
    05:00 +15°C° 0 mm 0 mps 748 mmHg 90%
    06:00 +17°C° 0 mm 0 mps 748 mmHg 84%
    07:00 +21°C° 0 mm 1 mps 749 mmHg 78%
    08:00 +23°C° 0 mm 1 mps 749 mmHg 72%
    09:00 +24°C° 0 mm 1 mps 749 mmHg 65%
    10:00 +26°C° 0 mm 1 mps 749 mmHg 58%
    11:00 +28°C° 0 mm 1 mps 749 mmHg 51%
    12:00 +28°C° 0 mm 1 mps 748 mmHg 49%
    13:00 +29°C° 0 mm 1 mps 748 mmHg 46%
    14:00 +30°C° 0 mm 1 mps 748 mmHg 43%
    15:00 +29°C° 0 mm 1 mps 748 mmHg 47%
    16:00 +29°C° 0 mm 1 mps 748 mmHg 50%
    17:00 +28°C° 0 mm 1 mps 747 mmHg 54%
    18:00 +27°C° 0 mm 1 mps 747 mmHg 60%
    19:00 +25°C° 0 mm 1 mps 747 mmHg 66%
    20:00 +23°C° 0 mm 1 mps 747 mmHg 73%
    21:00 +22°C° 0.1 mm 1 mps 747 mmHg 77%
    22:00 +21°C° 0.1 mm 1 mps 747 mmHg 81%
    23:00 +20°C° 0.1 mm 1 mps 747 mmHg 85%

    Day after tomorrow, 22 July, Monday

    Time Temperature Precipitation Wind Pressure Humidity
    00:00 +20°C° 0 mm 1 mps 747 mmHg 86%
    01:00 +20°C° 0 mm 1 mps 747 mmHg 88%
    02:00 +19°C° 0 mm 1 mps 747 mmHg 90%
    03:00 +19°C° 0.1 mm 1 mps 746 mmHg 90%
    04:00 +19°C° 0.1 mm 1 mps 746 mmHg 90%
    05:00 +19°C° 0.1 mm 1 mps 746 mmHg 91%
    06:00 +19°C° 1 mm 1 mps 746 mmHg 93%
    07:00 +20°C° 1 mm 1 mps 746 mmHg 94%
    08:00 +20°C° 1 mm 1 mps 746 mmHg 96%
    09:00 +21°C° 0.6 mm 1 mps 746 mmHg 92%
    10:00 +21°C° 0.6 mm 2 mps 746 mmHg 88%
    11:00 +21°C° 0.6 mm 2 mps 746 mmHg 84%
    12:00 +21°C° 0.6 mm 3 mps 746 mmHg 84%
    13:00 +21°C° 0.6 mm 4 mps 746 mmHg 83%
    14:00 +22°C° 0.6 mm 5 mps 746 mmHg 83%
    15:00 +22°C° 0 mm 5 mps 746 mmHg 77%
    16:00 +23°C° 0 mm 5 mps 746 mmHg 72%
    17:00 +23°C° 0 mm 4 mps 746 mmHg 67%
    18:00 +22°C° 0 mm 4 mps 746 mmHg 72%
    19:00 +20°C° 0 mm 4 mps 746 mmHg 77%
    20:00 +19°C° 0 mm 3 mps 746 mmHg 82%
    21:00 +18°C° 0 mm 3 mps 746 mmHg 85%
    22:00 +18°C° 0 mm 3 mps 746 mmHg 88%
    23:00 +17°C° 0 mm 3 mps 746 mmHg 91%

    23 July, Tuesday

    Time Temperature Precipitation Wind Pressure Humidity
    00:00 +17°C° 0 mm 3 mps 746 mmHg 92%
    01:00 +15°C° 0 mm 4 mps 746 mmHg 94%
    02:00 +15°C° 0 mm 4 mps 746 mmHg 95%
    03:00 +15°C° 0 mm 4 mps 746 mmHg 94%
    04:00 +15°C° 0 mm 4 mps 746 mmHg 93%
    05:00 +15°C° 0 mm 4 mps 746 mmHg 92%
    06:00 +15°C° 0 mm 4 mps 746 mmHg 90%
    07:00 +15°C° 0 mm 4 mps 746 mmHg 89%
    08:00 +16°C° 0 mm 3 mps 745 mmHg 87%
    09:00 +17°C° 0 mm 3 mps 746 mmHg 84%
    10:00 +18°C° 0 mm 3 mps 746 mmHg 81%
    11:00 +18°C° 0 mm 4 mps 746 mmHg 79%
    12:00 +19°C° 0.1 mm 4 mps 746 mmHg 76%
    13:00 +20°C° 0.1 mm 4 mps 746 mmHg 74%
    14:00 +21°C° 0.1 mm 4 mps 745 mmHg 71%
    15:00 +21°C° 0.4 mm 4 mps 745 mmHg 73%
    16:00 +21°C° 0.4 mm 4 mps 745 mmHg 75%
    17:00 +21°C° 0.4 mm 4 mps 745 mmHg 77%
    18:00 +19°C° 0.2 mm 4 mps 745 mmHg 82%
    19:00 +18°C° 0.2 mm 3 mps 744 mmHg 87%
    20:00 +17°C° 0.2 mm 2 mps 744 mmHg 93%
    21:00 +16°C° 0 mm 2 mps 744 mmHg 94%
    22:00 +16°C° 0 mm 2 mps 744 mmHg 95%
    23:00 +15°C° 0 mm 2 mps 744 mmHg 97%

    24 July, Wednesday

    Time Temperature Precipitation Wind Pressure Humidity
    00:00 +15°C° 0 mm 2 mps 744 mmHg 97%
    01:00 +15°C° 0 mm 2 mps 744 mmHg 98%
    02:00 +15°C° 0 mm 2 mps 744 mmHg 98%
    03:00 +15°C° 0 mm 2 mps 744 mmHg 98%
    04:00 +16°C° 0 mm 3 mps 745 mmHg 98%
    05:00 +16°C° 0 mm 3 mps 745 mmHg 97%
    06:00 +16°C° 0 mm 3 mps 745 mmHg 96%
    07:00 +17°C° 0 mm 3 mps 745 mmHg 94%
    08:00 +17°C° 0 mm 3 mps 745 mmHg 92%
    09:00 +18°C° 0 mm 4 mps 746 mmHg 86%
    10:00 +20°C° 0 mm 4 mps 746 mmHg 80%
    11:00 +21°C° 0 mm 4 mps 746 mmHg 74%
    12:00 +22°C° 0.2 mm 4 mps 746 mmHg 70%
    13:00 +25°C° 0.2 mm 4 mps 746 mmHg 65%
    14:00 +26°C° 0.2 mm 5 mps 746 mmHg 60%
    15:00 +26°C° 0.3 mm 5 mps 746 mmHg 61%
    16:00 +25°C° 0.3 mm 5 mps 746 mmHg 62%
    17:00 +25°C° 0.3 mm 5 mps 746 mmHg 63%
    18:00 +23°C° 0 mm 4 mps 746 mmHg 70%
    19:00 +21°C° 0 mm 3 mps 746 mmHg 76%
    20:00 +19°C° 0 mm 2 mps 746 mmHg 82%
    21:00 +19°C° 0 mm 2 mps 747 mmHg 85%
    22:00 +18°C° 0 mm 2 mps 747 mmHg 88%
    23:00 +17°C° 0 mm 2 mps 747 mmHg 91%

    25 July, Thursday

    Time Temperature Precipitation Wind Pressure Humidity
    00:00 +17°C° 0 mm 3 mps 747 mmHg 91%
    01:00 +16°C° 0 mm 3 mps 747 mmHg 91%
    02:00 +16°C° 0 mm 3 mps 747 mmHg 92%
    03:00 +16°C° 0 mm 3 mps 747 mmHg 92%
    04:00 +16°C° 0 mm 3 mps 747 mmHg 92%
    05:00 +16°C° 0 mm 3 mps 747 mmHg 92%
    06:00 +17°C° 0 mm 3 mps 747 mmHg 84%
    07:00 +19°C° 0 mm 3 mps 748 mmHg 77%
    08:00 +21°C° 0 mm 4 mps 748 mmHg 70%
    09:00 +22°C° 0 mm 4 mps 748 mmHg 63%
    10:00 +25°C° 0 mm 5 mps 748 mmHg 56%
    11:00 +26°C° 0 mm 5 mps 748 mmHg 50%
    12:00 +27°C° 0 mm 5 mps 748 mmHg 49%
    13:00 +27°C° 0 mm 5 mps 747 mmHg 48%
    14:00 +28°C° 0 mm 5 mps 747 mmHg 47%
    15:00 +27°C° 0 mm 5 mps 747 mmHg 49%
    16:00 +27°C° 0 mm 5 mps 747 mmHg 50%
    17:00 +27°C° 0 mm 5 mps 747 mmHg 52%
    18:00 +25°C° 0 mm 4 mps 747 mmHg 59%
    19:00 +22°C° 0 mm 4 mps 747 mmHg 66%
    20:00 +21°C° 0 mm 3 mps 747 mmHg 72%
    21:00 +20°C° 0 mm 3 mps 747 mmHg 74%
    22:00 +19°C° 0 mm 3 mps 747 mmHg 77%
    23:00 +18°C° 0 mm 3 mps 748 mmHg 79%
    Show more